Location: Fernhill
(41.0167°S, 175.6333°E)
Time: 09:18:47
(UTC+00:00)

Cosmos 1980 Rocket - Pass Details

Date: 08 November 2025
Orbit: 829 x 848 km, 71.0° (Epoch: 11 December)

Event Time Altitude Azimuth Distance (km) Brightness Sun altitude
Rises 11:14:49 0° 207° (SSW) 3,425 6.4 -31.3°
Reaches altitude 10° 11:17:18 10° 210° (SSW) 2,486 5.4 -31.4°
Enters shadow 11:21:44 50° 240° (WSW) 1,073 2.8 -31.5°
